DLH1560 EDDF-UDYZ

Flight info

Callsign DLH1560
Flight time N/A
Altitude 31000
Route SULUS7S SULUS Z650 VEMUT/N0457F330 DCT PEPIK/N0453F350 DCT UVERA DCT BUDOP DCT UDROS UM859 KARDE UL851 TBN UP146 YAVUZ UN161 BIRZU N161 INDUR
Aircraft A21N/M-SDE2E3FGHIRWXY/LB1

Departure

Time N/A
Airport Frankfurt Main Airport (EDDF)

Arrival

Time 2026-05-03 20:39
Airport Zvartnots International Airport (UDYZ)
Time Latitude Longitude Altitude Speed Heading
2026-05-03 20:15 40.26878 41.83336 34917 ft 466 kts 120°
2026-05-03 20:15 40.24051 41.90977 34932 ft 466 kts 120°
2026-05-03 20:16 40.21221 41.98545 34943 ft 466 kts 120°
2026-05-03 20:16 40.18353 42.06144 34949 ft 466 kts 120°
2026-05-03 20:17 40.15507 42.13756 34956 ft 466 kts 120°
2026-05-03 20:17 40.12685 42.21329 34607 ft 462 kts 120°
2026-05-03 20:17 40.11272 42.25115 34312 ft 463 kts 120°
2026-05-03 20:18 40.09852 42.28897 34059 ft 462 kts 120°
2026-05-03 20:18 40.08441 42.32652 33788 ft 462 kts 120°
2026-05-03 20:18 40.07021 42.36418 33512 ft 462 kts 120°
2026-05-03 20:18 40.05699 42.40255 33250 ft 466 kts 113°
2026-05-03 20:19 40.04875 42.44365 32984 ft 472 kts 101°
2026-05-03 20:19 40.04711 42.48658 32724 ft 477 kts 90°
2026-05-03 20:19 40.04953 42.52985 32389 ft 477 kts 88°
2026-05-03 20:19 40.05249 42.57300 31667 ft 478 kts 87°
2026-05-03 20:20 40.05540 42.61619 30868 ft 479 kts 88°
2026-05-03 20:20 40.05821 42.65964 30058 ft 482 kts 88°
2026-05-03 20:20 40.06076 42.70340 29093 ft 484 kts 88°
2026-05-03 20:20 40.06342 42.74673 28191 ft 485 kts 88°
2026-05-03 20:21 40.06617 42.79068 27335 ft 486 kts 88°
2026-05-03 20:21 40.06883 42.83469 26414 ft 488 kts 89°
2026-05-03 20:21 40.07141 42.87906 25467 ft 491 kts 88°
2026-05-03 20:21 40.07406 42.92359 24573 ft 492 kts 88°
2026-05-03 20:22 40.07670 42.96808 23814 ft 490 kts 88°
2026-05-03 20:22 40.07928 43.01229 23050 ft 487 kts 89°
2026-05-03 20:22 40.08185 43.05629 22319 ft 483 kts 89°
2026-05-03 20:22 40.08441 43.10030 21884 ft 488 kts 89°
2026-05-03 20:23 40.08692 43.14436 21523 ft 486 kts 89°
2026-05-03 20:23 40.08941 43.18809 21020 ft 480 kts 89°
2026-05-03 20:23 40.09183 43.23123 20407 ft 474 kts 89°
2026-05-03 20:23 40.09419 43.27385 19843 ft 467 kts 89°
2026-05-03 20:24 40.09653 43.31588 19279 ft 460 kts 90°
2026-05-03 20:24 40.09881 43.35741 18692 ft 456 kts 90°
2026-05-03 20:24 40.10109 43.39849 18070 ft 451 kts 90°
2026-05-03 20:24 40.10328 43.43922 17334 ft 449 kts 90°
2026-05-03 20:25 40.10556 43.47986 16709 ft 446 kts 90°
2026-05-03 20:25 40.10775 43.52013 16137 ft 442 kts 90°
2026-05-03 20:25 40.10989 43.56001 15602 ft 438 kts 90°
2026-05-03 20:25 40.11192 43.59950 15059 ft 434 kts 90°
2026-05-03 20:26 40.11396 43.63857 14552 ft 430 kts 90°
2026-05-03 20:26 40.11810 43.67728 13841 ft 431 kts 79°
2026-05-03 20:26 40.12946 43.71359 12907 ft 438 kts 64°
2026-05-03 20:26 40.14488 43.74766 12208 ft 428 kts 61°
2026-05-03 20:27 40.15811 43.78062 11756 ft 401 kts 73°
2026-05-03 20:27 40.16363 43.81533 11376 ft 372 kts 92°
2026-05-03 20:27 40.16136 43.84735 11025 ft 348 kts 104°
2026-05-03 20:27 40.15720 43.87778 10651 ft 333 kts 103°
2026-05-03 20:28 40.15405 43.90706 10302 ft 319 kts 101°
2026-05-03 20:28 40.15184 43.93544 9988 ft 306 kts 99°
2026-05-03 20:28 40.14995 43.96253 9780 ft 293 kts 100°
2026-05-03 20:28 40.14781 43.98845 9595 ft 280 kts 99°
2026-05-03 20:29 40.14634 44.01316 9433 ft 267 kts 97°
2026-05-03 20:29 40.14867 44.03680 9244 ft 262 kts 72°
2026-05-03 20:29 40.15860 44.05627 9025 ft 258 kts 44°
2026-05-03 20:29 40.17384 44.06725 8851 ft 245 kts 17°
2026-05-03 20:30 40.19029 44.07033 8694 ft 234 kts
2026-05-03 20:30 40.20607 44.07106 8492 ft 224 kts 353°
2026-05-03 20:30 40.22002 44.06270 8207 ft 222 kts 320°
2026-05-03 20:30 40.22836 44.04620 7988 ft 218 kts 286°
2026-05-03 20:31 40.22871 44.02709 7748 ft 209 kts 252°
2026-05-03 20:31 40.22125 44.01152 7506 ft 200 kts 218°
2026-05-03 20:31 40.20889 44.00463 7278 ft 192 kts 184°
2026-05-03 20:31 40.19622 44.00841 7051 ft 188 kts 150°
2026-05-03 20:32 40.18521 44.01747 7001 ft 187 kts 146°
2026-05-03 20:32 40.17419 44.02662 7008 ft 188 kts 146°
2026-05-03 20:32 40.16341 44.03555 7005 ft 177 kts 146°
2026-05-03 20:32 40.15330 44.04445 6989 ft 175 kts 137°
2026-05-03 20:33 40.14819 44.05883 6996 ft 179 kts 105°
2026-05-03 20:33 40.14680 44.07498 6998 ft 180 kts 97°
2026-05-03 20:33 40.14631 44.09078 6890 ft 168 kts 95°
2026-05-03 20:33 40.14588 44.10587 6728 ft 166 kts 94°
2026-05-03 20:34 40.14584 44.12090 6545 ft 164 kts 93°
2026-05-03 20:34 40.14588 44.13576 6348 ft 164 kts 92°
2026-05-03 20:34 40.14595 44.15054 6126 ft 163 kts 92°
2026-05-03 20:34 40.14603 44.16546 5916 ft 162 kts 92°
2026-05-03 20:35 40.14610 44.18010 5693 ft 161 kts 92°
2026-05-03 20:35 40.14619 44.19432 5488 ft 152 kts 91°
2026-05-03 20:35 40.14626 44.20800 5278 ft 146 kts 92°
2026-05-03 20:35 40.14632 44.22148 5095 ft 149 kts 94°
2026-05-03 20:36 40.14640 44.23479 4906 ft 148 kts 94°
2026-05-03 20:36 40.14647 44.24821 4711 ft 148 kts 94°
2026-05-03 20:36 40.14655 44.26184 4518 ft 147 kts 93°
2026-05-03 20:36 40.14662 44.27521 4323 ft 147 kts 92°
2026-05-03 20:37 40.14669 44.28860 4128 ft 148 kts 92°
2026-05-03 20:37 40.14676 44.30205 3932 ft 148 kts 91°
2026-05-03 20:37 40.14684 44.31529 3742 ft 147 kts 90°
2026-05-03 20:37 40.14691 44.32878 3483 ft 149 kts 89°
2026-05-03 20:38 40.14690 44.34259 3257 ft 150 kts 87°
2026-05-03 20:38 40.14708 44.35607 3037 ft 151 kts 88°
2026-05-03 20:38 40.14721 44.36971 2879 ft 150 kts 88°
2026-05-03 20:38 40.14723 44.38254 2815 ft 125 kts 88°
2026-05-03 20:39 40.14734 44.39049 2818 ft 64 kts 89°
2026-05-03 20:39 40.14736 44.39528 2821 ft 40 kts 89°
2026-05-03 20:39 40.14738 44.39819 2824 ft 27 kts 90°
2026-05-03 20:39 40.14749 44.39991 2829 ft 16 kts 46°
2026-05-03 20:40 40.14871 44.40027 2827 ft 22 kts
2026-05-03 20:40 40.14909 44.40028 2827 ft 0 kts 359°
2026-05-03 20:40 40.14938 44.40023 2827 ft 7 kts 340°
2026-05-03 20:41 40.14989 44.39955 2826 ft 8 kts 321°
2026-05-03 20:41 40.15044 44.39933 2828 ft 9 kts 360°
2026-05-03 20:41 40.15090 44.39934 2826 ft 0 kts 359°